Flight Track Log - Related Links

Times and Time Zones

All times are in EDT time to prevent confusion due to time zone crossing. See the TAM3252 flight status page for this flight to view local times or setup timezone preferences in your user account.


Time Position Orientation Groundspeed Altitude Reporting Facility
EDT Latitude Longitude Course Direction KTS MPH feet Rate Location/Type
Thu 06:39:00 AM -23.1206 -44.5035 76° East  Level Estimated
Thu 06:40:00 AM -23.1053 -44.4404 75° East  Level Estimated
Thu 06:41:00 AM -23.0899 -44.3774 75° East  Level Estimated
Thu 06:42:00 AM -23.0746 -44.3144 75° East  Level Estimated
Thu 06:43:00 AM -23.0592 -44.2514 75° East  Level Estimated
Thu 06:44:00 AM -23.0437 -44.1884 75° East  Level Estimated
Thu 06:45:00 AM -23.0283 -44.1255 75° East  Level Estimated
Thu 06:46:00 AM -23.0128 -44.0625 75° East  Level Estimated
Thu 06:47:00 AM -22.9973 -43.9996 75° East  Level Estimated
Thu 06:48:00 AM -22.9818 -43.9366 75° East  Level Estimated
Thu 06:49:00 AM -22.9662 -43.8737 75° East  Level Estimated
Thu 06:50:00 AM -22.9506 -43.8108 75° East  Level Estimated
Thu 06:51:00 AM -22.9350 -43.7480 75° East  Level Estimated
Thu 06:52:00 AM -22.9194 -43.6851 75° East  Level Estimated
Thu 06:53:00 AM -22.9038 -43.6222 75° East  Level Estimated
Thu 06:54:00 AM -22.8881 -43.5594 75° East  Level Estimated
Thu 06:55:00 AM -22.8724 -43.4966 75° East  Level Estimated
Thu 06:56:00 AM -22.8567 -43.4338 75° East  Level Estimated
Thu 06:57:00 AM -22.8409 -43.3710 75° East  Level Estimated
Thu 06:58:00 AM -22.8251 -43.3082 75° East  Level Estimated
Thu 06:59:00 AM -22.8093 -43.2454 75° East  Level Estimated
Thu 07:00:00 AM -22.8089 -43.2436 75° East  Level Estimated
Thu 07:01:00 AM -22.8089 -43.2436 137° Southeast  Level Estimated
Thu 07:02:00 AM -22.8089 -43.2436 137° Southeast  Level Estimated
Thu 07:03:00 AM -22.8089 -43.2436 137° Southeast  Level Estimated
Thu 07:04:00 AM -22.8089 -43.2436 137° Southeast  Level Estimated
Thu 07:05:00 AM -22.8089 -43.2436 137° Southeast  Level Estimated
Thu 07:06:00 AM -22.8089 -43.2436 137° Southeast  Level Estimated
Thu 07:07:00 AM -22.8089 -43.2436 137° Southeast  Level Estimated
Thu 07:08:00 AM -22.8089 -43.2436 137° Southeast  Level Estimated
Thu 07:09:00 AM -22.8089 -43.2436 137° Southeast  Level Estimated
Thu 07:10:00 AM -22.8089 -43.2436 137° Southeast  Level Estimated
Thu 07:11:00 AM -22.8089 -43.2436 137° Southeast  Level Estimated
Thu 07:12:00 AM -22.8089 -43.2436 137° Southeast  Level Estimated
Thu 07:13:00 AM -22.8089 -43.2436 137° Southeast  Level Estimated
Thu 07:14:00 AM -22.8089 -43.2436 137° Southeast  Level Estimated
Thu 07:15:00 AM -22.8089 -43.2436 137° Southeast  Level Estimated

Login

Don't have an account? Register now (free) for customized features, flight alerts, and more!